Regional Weather Roundup
Issued by NWS Kansas City/Pleasant Hill, MO

Home | Current Version | Previous Version | Text Only | Print | Product List | Glossary On
Versions: 1 2 3 4 5 6 7 8 9 10 11 12 13 14 15 16 17 18 19 20 21 22 23 24 25 26 27
000
ASUS43 KEAX 171810
RWREAX

WEATHER ROUNDUP FOR EASTERN KANSAS AND NORTHWEST MISSOURI
NATIONAL WEATHER SERVICE KANSAS CITY/PLEASANT HILL MO
1200 PM CST TUE JAN 17 2017

KSZ040-057-103>105-MOZ028-029-037-043-171900-
...KANSAS CITY METROPOLITAN AREA...

CITY           SKY/WX    TMP DP  RH WIND       PRES   REMARKS
K.C. INTL      CLOUDY    36  32  85 W9        30.08F WCI  29
6HR MIN TEMP:  34; 6HR MAX TEMP:  36;

K.C. DOWNTOWN  CLOUDY    37  34  89 W8        30.10F WCI  31
6HR MIN TEMP:  35; 6HR MAX TEMP:  38;

LEES SUMMIT    CLOUDY    36  34  92 W9        30.09F WCI  29
6HR MIN TEMP:  34; 6HR MAX TEMP:  36;

OLATHE - IXD   CLOUDY    36  34  92 W9        30.11S WCI  29
6HR MIN TEMP:  34; 6HR MAX TEMP:  36;

OLATHE - OJC   CLOUDY    35  35 100 W8        30.10S WCI  29
6HR MIN TEMP:  33; 6HR MAX TEMP:  35;

LAWRENCE       CLOUDY    37  35  92 W9        30.12F WCI  30

$$

MOZ001>008-011>017-020>025-030>033-038>040-044>046-053-054-171900-
...NORTHERN AND CENTRAL MISSOURI...

CITY           SKY/WX    TMP DP  RH WIND       PRES   REMARKS
ST. JOSEPH     CLOUDY    35  35 100 NW12      30.10F FOG     WCI  27
6HR MIN TEMP:  33; 6HR MAX TEMP:  36;

MOSBY          CLOUDY    36  34  93 W8        30.10S WCI  29
WARRENSBURG    CLOUDY    36  34  93 W7        30.09F WCI  30
WHITEMAN AFB   NOT AVBL
CLINTON        CLOUDY    39  36  87 W9        30.11F WCI  33
SEDALIA        CLOUDY    39  36  89 W10       30.09F WCI  32
6HR MIN TEMP:  37; 6HR MAX TEMP:  39;

WARSAW         NOT AVBL
CHILLICOTHE      N/A     36  34  92 W8        30.08S WCI  30
6HR MIN TEMP:  34; 6HR MAX TEMP:  37;

KIRKSVILLE     CLOUDY    36  34  92 W9        30.03S WCI  29
6HR MIN TEMP:  35; 6HR MAX TEMP:  37;


$$

MOZ041-047>049-056>058-063>065-088>090-097-171900-
...EASTERN AND SOUTHERN MISSOURI...

CITY           SKY/WX    TMP DP  RH WIND       PRES   REMARKS
ST. LOUIS INTL CLOUDY    47  38  71 W14       30.04R
6HR MIN TEMP:  44; 6HR MAX TEMP:  47;

SPIRIT OF STL  CLOUDY    44  39  82 W16G23    30.03F
COLUMBIA       CLOUDY    38  36  92 W14       30.06F WCI  30
JEFFERSON CITY CLOUDY    41  36  82 W10       30.08F WCI  35
ROLLA          CLOUDY    40  38  93 W10       30.05F WCI  33
OSAGE BEACH    CLOUDY    39  35  86 W12       30.09F WCI  32
SPRINGFIELD    CLOUDY    39  35  86 W12       30.11S WCI  32
BRANSON        CLOUDY    39  34  81 W8        30.13S WCI  34
JOPLIN         CLOUDY    39  35  86 W8        30.16F WCI  33
WEST PLAINS    CLOUDY    41  38  89 W10       30.09F WCI  35

$$

IAZ060-094-KSZ022-034>040-054-083-096-NEZ052-066-093-171900-
...KANSAS...SOUTHEAST NEBRASKA AND IOWA...

CITY           SKY/WX    TMP DP  RH WIND       PRES   REMARKS
TOPEKA         CLOUDY    40  34  79 W10       30.12S WCI  33
6HR MIN TEMP:  35; 6HR MAX TEMP:  40;

MANHATTAN      PTSUNNY   37  28  70 NW5       30.13F WCI  33
EMPORIA        PTSUNNY   42  34  73 W7        30.12F
CHANUTE        CLOUDY    38  34  85 NW9       30.15F WCI  31
WICHITA        MOSUNNY   43  30  60 NW8       30.15F
OMAHA          CLOUDY    29  23  78 NW6       30.09F WCI  23
LINCOLN        SUNNY     32  25  75 W7        30.11F WCI  26
FALLS CITY     CLOUDY    34  31  88 NW8       30.10F WCI  27
LAMONI         CLOUDY    34  33  96 W15       30.03F FOG     WCI  24
DES MOINES     CLOUDY    35  33  92 NW12      30.03S FOG     WCI  27

$$





USA.gov is the U.S. government's official web portal to all federal, state and local government web resources and services.